Jonesboro, AR

2:25 AM CDT on March 28, 2017 (GMT -0500)
Jonesboro Municipal

Weather History for KJBR - June, 2013

Change the Weather History Date:

Wednesday, June 12, 2013

  Actual Average Record
Temperature  
Mean Temperature 87 °F 77 °F  
Max Temperature 98 °F 88 °F 106 °F (1897)
Min Temperature 75 °F 66 °F 47 °F (1903)
Degree Days  
Heating Degree Days 0 0  
Month to date heating degree days 0 0  
Since 1 June heating degree days 0 0  
Since 1 July heating degree days 3556 3652  
Cooling Degree Days 22 12  
Month to date cooling degree days 138 129  
Year to date cooling degree days 368 342  
Since 1 June cooling degree days 138 129  
Growing Degree Days 36 (Base 50)    
Moisture  
Dew Point 71 °F    
Average Humidity 65    
Maximum Humidity 87    
Minimum Humidity 42    
Precipitation  
Precipitation 0.00 in 0.11 in 3.01 in (1942)
Month to date precipitation 1.64 1.21  
Year to date precipitation 27.98 22.49  
Snow  
Snow 0.00 in 0.00 in - ()
Month to date snowfall 0.0 0.0  
Since 1 June snowfall 0.0 0.0  
Since 1 July snowfall 11.0 4.8  
Snow Depth 0.00 in    
Sea Level Pressure  
Sea Level Pressure 29.94 in    
Wind  
Wind Speed 13 mph (SW)    
Max Wind Speed 24 mph    
Max Gust Speed 31 mph    
Visibility 10 miles    
Events      
T = Trace of Precipitation, MM = Missing Value Source: NWS Daily Summary

Daily Weather History Graph

Daily Weather History Graph

Search for Another Location

Airport or City:

Trip Planner

Search our weather history database for the weather conditions in past years. The results will help you decide how hot, cold, wet, or windy it might be!

Date:

Astronomy

Jun. 12, 2013 Rise Set
Actual Time 5:45 AM CDT 8:19 PM CDT
Civil Twilight 5:15 AM CDT 8:49 PM CDT
Nautical Twilight 4:38 AM CDT 9:26 PM CDT
Astronomical Twilight 3:57 AM CDT 10:08 PM CDT
Moon 9:19 AM CDT (6/12) 11:02 PM CDT (6/12)
Length of Visible Light 15h 33m
Length of Day
14h 33m
Waxing Crescent, 14% of the Moon is Illuminated
Jun 12
Waxing Crescent
Jun 16
First Quarter
Jun 23
Full
Jun 29
Last Quarter
Jul 8
New

Hourly Weather History & Observations

Time (CDT) Temp. Heat Index Dew Point Humidity Pressure Visibility Wind Dir Wind Speed Gust Speed Precip Events Conditions
12:53 AM 79.0 °F - 72.0 °F 79% 29.95 in 10.0 mi SW 6.9 mph - N/A   Clear
1:53 AM 81.0 °F 85.2 °F 72.0 °F 74% 29.94 in 10.0 mi SW 11.5 mph - N/A   Clear
2:53 AM 80.1 °F 83.8 °F 72.0 °F 76% 29.95 in 10.0 mi WSW 9.2 mph - N/A   Clear
3:53 AM 77.0 °F - 72.0 °F 84% 29.95 in 10.0 mi SW 4.6 mph - N/A   Clear
4:53 AM 75.0 °F - 72.0 °F 90% 29.96 in 10.0 mi SSW 5.8 mph - N/A   Clear
5:53 AM 75.9 °F - 72.0 °F 87% 29.98 in 10.0 mi SW 8.1 mph - N/A   Clear
6:53 AM 79.0 °F - 73.0 °F 82% 30.00 in 10.0 mi SW 6.9 mph - N/A   Clear
7:53 AM 82.9 °F 88.8 °F 73.0 °F 72% 30.00 in 10.0 mi SW 10.4 mph - N/A   Clear
8:53 AM 87.1 °F 94.5 °F 73.0 °F 63% 30.02 in 10.0 mi WSW 12.7 mph - N/A   Clear
9:53 AM 91.0 °F 97.6 °F 71.1 °F 52% 30.01 in 10.0 mi WSW 12.7 mph 19.6 mph N/A   Clear
10:53 AM 91.9 °F 97.4 °F 70.0 °F 48% 30.01 in 10.0 mi SW 18.4 mph 23.0 mph N/A   Clear
11:53 AM 93.9 °F 100.3 °F 70.0 °F 46% 30.00 in 10.0 mi WSW 17.3 mph 24.2 mph N/A   Clear
12:53 PM 95.0 °F 101.3 °F 70.0 °F 44% 29.99 in 10.0 mi WSW 18.4 mph 26.5 mph N/A   Clear
1:53 PM 96.1 °F 102.9 °F 70.0 °F 43% 29.96 in 10.0 mi SW 17.3 mph 25.3 mph N/A   Clear
2:53 PM 97.0 °F 104.8 °F 71.1 °F 43% 29.94 in 10.0 mi WSW 17.3 mph 25.3 mph N/A   Clear
3:53 PM 97.0 °F 105.5 °F 72.0 °F 44% 29.92 in 10.0 mi SW 20.7 mph 27.6 mph N/A   Clear
4:53 PM 96.1 °F 102.9 °F 70.0 °F 43% 29.89 in 10.0 mi SW 16.1 mph 27.6 mph N/A   Clear
5:53 PM 93.9 °F 100.3 °F 70.0 °F 46% 29.87 in 10.0 mi SW 16.1 mph 31.1 mph N/A   Clear
6:53 PM 93.0 °F 99.0 °F 70.0 °F 47% 29.88 in 10.0 mi SW 15.0 mph - N/A   Clear
7:53 PM 89.1 °F 92.9 °F 68.0 °F 50% 29.88 in 10.0 mi SW 12.7 mph - N/A   Clear
8:53 PM 87.1 °F 90.6 °F 68.0 °F 53% 29.88 in 10.0 mi SW 15.0 mph 21.9 mph N/A   Clear
9:53 PM 84.9 °F 88.8 °F 69.1 °F 59% 29.89 in 10.0 mi SW 11.5 mph - N/A   Clear
10:53 PM 84.0 °F 88.4 °F 70.0 °F 63% 29.89 in 10.0 mi SW 12.7 mph 19.6 mph N/A   Clear
11:53 PM 82.9 °F 87.0 °F 70.0 °F 65% 29.89 in 10.0 mi SW 10.4 mph - N/A   Clear